Location: Unspecified
(56.5167°N, 0.0000°E)
Time: 12:56:19
(UTC+02:00)

ISS - Visible Passes

Search period start: 08 May 2021 00:00
Search period end: 18 May 2021 00:00
Orbit: 418 x 421 km, 51.6° (Epoch: 08 May)

Date Brightness Start Highest point End Pass type
(mag) Time Alt. Az. Time Alt. Az. Time Alt. Az.
08 May -1.8 02:49:25 17° SE 02:49:25 17° SE 02:50:55 10° ESE visible
08 May -3.0 04:22:20 15° SW 04:24:43 34° S 04:27:50 10° ESE visible
09 May -2.9 03:36:23 25° SSW 03:37:24 31° SSE 03:40:27 10° ESE visible
10 May -2.6 02:50:23 27° SSE 02:50:23 27° SSE 02:53:02 10° ESE visible
10 May -3.1 04:23:20 10° WSW 04:26:27 35° S 04:29:36 10° ESE visible
11 May -1.8 02:04:21 17° ESE 02:04:21 17° ESE 02:05:34 10° ESE visible
11 May -3.1 03:37:17 20° SW 03:39:08 36° S 03:42:16 10° ESE visible
12 May -3.1 02:51:12 31° SSW 02:51:48 34° S 02:54:55 10° ESE visible
12 May -2.9 04:25:09 10° WSW 04:28:10 30° SSW 04:31:12 10° SE visible
13 May -2.8 02:05:02 29° SSE 02:05:02 29° SSE 02:07:31 10° ESE visible
13 May -3.1 03:37:57 11° WSW 03:40:51 34° S 03:43:57 10° ESE visible
14 May -2.1 01:18:38 20° ESE 01:18:38 20° ESE 01:20:06 10° ESE visible
14 May -3.2 02:51:32 18° WSW 02:53:32 35° S 02:56:40 10° ESE visible
14 May -2.5 04:27:08 10° WSW 04:29:49 22° SSW 04:32:29 10° SSE visible
15 May -2.6 00:27:10 10° SSW 00:29:53 23° SSE 00:32:37 10° ESE visible
15 May -3.2 02:03:04 10° WSW 02:06:12 36° S 02:09:20 10° ESE visible
15 May -2.8 03:39:39 10° WSW 03:42:32 26° SSW 03:45:25 10° SE visible
15 May -2.3 23:40:12 10° SSW 23:42:38 19° SSE 23:45:03 10° ESE visible
16 May -3.2 01:15:45 10° WSW 01:18:52 34° S 01:21:58 10° ESE visible
16 May -3.0 02:52:13 10° WSW 02:55:14 30° SSW 02:58:15 10° SE visible
16 May -1.9 04:29:34 10° WSW 04:31:20 14° SSW 04:33:06 10° S visible
17 May -3.0 00:28:30 10° SW 00:31:32 31° SSE 00:34:35 10° ESE visible
17 May -3.1 02:04:49 10° WSW 02:07:54 33° S 02:11:00 10° ESE visible
17 May -2.2 03:41:47 10° WSW 03:44:07 18° SSW 03:46:27 10° SSE visible
17 May -2.8 23:41:19 10° SW 23:44:13 27° SSE 23:47:09 10° ESE visible
